TimeCDT,TemperatureF,Dew PointF,Humidity,Sea Level PressureIn,VisibilityMPH,Wind Direction,Wind SpeedMPH,Gust SpeedMPH,PrecipitationIn,Events,Conditions,WindDirDegrees,DateUTC
12:13 AM,39.2,19.4,45,29.77,10.0,SSW,5.8,-,N/A,,Overcast,200,2012-10-08 05:13:00
12:32 AM,41.0,17.6,39,29.76,10.0,SSW,5.8,-,N/A,,Overcast,210,2012-10-08 05:32:00
12:53 AM,41.0,17.6,39,29.76,10.0,SSW,6.9,-,N/A,,Overcast,210,2012-10-08 05:53:00
1:13 AM,39.2,17.6,42,29.76,10.0,SSW,8.1,-,N/A,,Overcast,210,2012-10-08 06:13:00
1:32 AM,39.2,17.6,42,29.75,10.0,SSW,6.9,-,N/A,,Overcast,210,2012-10-08 06:32:00
1:53 AM,39.2,17.6,42,29.75,10.0,SSW,5.8,-,N/A,,Mostly Cloudy,200,2012-10-08 06:53:00
2:13 AM,39.2,19.4,45,29.74,10.0,SSW,3.5,-,N/A,,Scattered Clouds,200,2012-10-08 07:13:00
2:32 AM,39.2,19.4,45,29.74,10.0,SSW,4.6,-,N/A,,Overcast,210,2012-10-08 07:32:00
2:53 AM,39.2,19.4,45,29.73,10.0,SSW,6.9,-,N/A,,Scattered Clouds,210,2012-10-08 07:53:00
3:13 AM,39.2,19.4,45,29.73,10.0,Calm,Calm,-,N/A,,Clear,0,2012-10-08 08:13:00
3:32 AM,37.4,19.4,48,29.72,10.0,Calm,Calm,-,N/A,,Scattered Clouds,0,2012-10-08 08:32:00
3:53 AM,37.4,19.4,48,29.71,10.0,SSW,3.5,-,N/A,,Overcast,200,2012-10-08 08:53:00
4:13 AM,39.2,19.4,45,29.71,10.0,South,5.8,-,N/A,,Overcast,190,2012-10-08 09:13:00
4:33 AM,39.2,19.4,45,29.70,10.0,South,3.5,-,N/A,,Overcast,170,2012-10-08 09:33:00
4:53 AM,39.2,19.4,45,29.69,10.0,South,4.6,-,N/A,,Overcast,180,2012-10-08 09:53:00
5:13 AM,39.2,19.4,45,29.69,10.0,South,4.6,-,N/A,,Overcast,190,2012-10-08 10:13:00
5:33 AM,39.2,19.4,45,29.68,10.0,SSW,5.8,-,N/A,,Overcast,200,2012-10-08 10:33:00
5:52 AM,39.2,19.4,45,29.68,10.0,SSW,3.5,-,N/A,,Overcast,200,2012-10-08 10:52:00
6:13 AM,39.2,21.2,49,29.68,10.0,SSW,4.6,-,N/A,,Mostly Cloudy,200,2012-10-08 11:13:00
6:32 AM,39.2,21.2,49,29.68,10.0,SSW,4.6,-,N/A,,Mostly Cloudy,200,2012-10-08 11:32:00
6:53 AM,39.2,21.2,49,29.67,10.0,SSW,5.8,-,N/A,,Overcast,200,2012-10-08 11:53:00
7:13 AM,37.4,21.2,52,29.67,10.0,South,4.6,-,N/A,,Mostly Cloudy,190,2012-10-08 12:13:00
7:32 AM,37.4,21.2,52,29.67,10.0,South,5.8,-,N/A,,Mostly Cloudy,190,2012-10-08 12:32:00
7:53 AM,37.4,21.2,52,29.67,10.0,South,4.6,-,N/A,,Overcast,190,2012-10-08 12:53:00
8:13 AM,39.2,23.0,52,29.67,10.0,SSW,6.9,-,N/A,,Mostly Cloudy,200,2012-10-08 13:13:00
8:32 AM,39.2,23.0,52,29.66,10.0,South,6.9,-,N/A,,Scattered Clouds,190,2012-10-08 13:32:00
8:53 AM,39.2,23.0,52,29.66,10.0,SSW,5.8,-,N/A,,Mostly Cloudy,200,2012-10-08 13:53:00
9:13 AM,41.0,23.0,49,29.65,10.0,South,6.9,-,N/A,,Scattered Clouds,190,2012-10-08 14:13:00
9:32 AM,42.8,23.0,46,29.65,10.0,South,6.9,-,N/A,,Clear,180,2012-10-08 14:32:00
9:53 AM,42.8,24.8,49,29.64,10.0,South,6.9,-,N/A,,Clear,170,2012-10-08 14:53:00
10:13 AM,44.6,23.0,43,29.63,10.0,South,6.9,-,N/A,,Clear,190,2012-10-08 15:13:00
10:32 AM,44.6,24.8,46,29.62,10.0,South,5.8,-,N/A,,Scattered Clouds,170,2012-10-08 15:32:00
10:53 AM,46.4,24.8,43,29.62,10.0,South,8.1,-,N/A,,Mostly Cloudy,180,2012-10-08 15:53:00
11:13 AM,46.4,23.0,40,29.61,10.0,South,8.1,-,N/A,,Scattered Clouds,170,2012-10-08 16:13:00
11:32 AM,46.4,24.8,43,29.60,10.0,South,5.8,-,N/A,,Clear,180,2012-10-08 16:32:00
11:53 AM,48.2,24.8,40,29.60,10.0,South,8.1,-,N/A,,Clear,180,2012-10-08 16:53:00
12:13 PM,48.2,24.8,40,29.59,10.0,South,5.8,9.2,N/A,,Scattered Clouds,190,2012-10-08 17:13:00
12:33 PM,48.2,26.6,43,29.59,10.0,South,10.4,-,N/A,,Scattered Clouds,170,2012-10-08 17:33:00
12:53 PM,48.2,26.6,43,29.57,10.0,South,9.2,-,N/A,,Mostly Cloudy,180,2012-10-08 17:53:00
1:13 PM,48.2,32.0,54,29.57,10.0,South,11.5,-,N/A,Rain,Light Rain,170,2012-10-08 18:13:00
1:33 PM,46.4,35.6,66,29.56,10.0,SSE,9.2,-,N/A,Rain,Light Rain,160,2012-10-08 18:33:00
1:53 PM,44.6,37.4,76,29.54,10.0,SSE,6.9,-,N/A,Rain,Light Rain,160,2012-10-08 18:53:00
2:13 PM,44.6,37.4,76,29.54,10.0,SSE,8.1,-,N/A,Rain,Light Rain,160,2012-10-08 19:13:00
2:33 PM,42.8,37.4,81,29.53,10.0,SSE,9.2,-,0.01,Rain,Light Rain,150,2012-10-08 19:33:00
2:53 PM,42.8,39.2,87,29.53,10.0,SSE,5.8,-,0.02,Rain,Light Rain,160,2012-10-08 19:53:00
3:13 PM,41.0,37.4,87,29.52,10.0,South,5.8,-,0.02,Rain,Rain,170,2012-10-08 20:13:00
3:32 PM,41.0,37.4,87,29.52,10.0,SSE,8.1,-,0.04,Rain,Rain,160,2012-10-08 20:32:00
3:53 PM,39.2,37.4,93,29.52,10.0,South,5.8,-,0.06,Rain,Rain,170,2012-10-08 20:53:00
4:13 PM,39.2,37.4,93,29.52,7.0,SSE,9.2,-,0.02,Rain,Rain,160,2012-10-08 21:13:00
4:32 PM,39.2,37.4,93,29.53,10.0,South,5.8,-,0.04,Rain,Rain,180,2012-10-08 21:32:00
4:53 PM,39.2,37.4,93,29.53,7.0,South,8.1,-,0.07,Rain,Rain,180,2012-10-08 21:53:00
5:13 PM,39.2,37.4,93,29.52,10.0,South,8.1,-,0.02,Rain,Light Rain,170,2012-10-08 22:13:00
5:33 PM,39.2,37.4,93,29.52,10.0,South,8.1,-,0.04,Rain,Light Rain,180,2012-10-08 22:33:00
5:53 PM,39.2,37.4,93,29.51,10.0,South,5.8,-,0.05,Rain,Light Rain,170,2012-10-08 22:53:00
6:13 PM,39.2,37.4,93,29.51,10.0,SSE,6.9,-,0.01,Rain,Light Rain,160,2012-10-08 23:13:00
6:32 PM,39.2,37.4,93,29.50,10.0,South,5.8,-,0.01,,Drizzle,170,2012-10-08 23:32:00
6:53 PM,39.2,37.4,93,29.50,10.0,South,5.8,-,N/A,,Light Drizzle,170,2012-10-08 23:53:00
7:12 PM,39.2,37.4,93,29.51,7.0,SW,4.6,-,N/A,Rain,Rain,220,2012-10-09 00:12:00
7:33 PM,39.2,37.4,93,29.51,5.0,SSW,3.5,-,N/A,Rain,Rain,210,2012-10-09 00:33:00
7:53 PM,39.2,39.2,100,29.51,5.0,SSW,5.8,-,N/A,,Overcast,210,2012-10-09 00:53:00
8:12 PM,41.0,39.2,93,29.51,7.0,WSW,5.8,-,N/A,,Overcast,240,2012-10-09 01:12:00
8:33 PM,41.0,39.2,93,29.52,4.0,WSW,9.2,17.3,N/A,,Overcast,250,2012-10-09 01:33:00
8:53 PM,41.0,39.2,93,29.52,10.0,WSW,11.5,17.3,N/A,,Overcast,240,2012-10-09 01:53:00
9:12 PM,42.8,39.2,87,29.53,10.0,WSW,9.2,16.1,N/A,,Overcast,250,2012-10-09 02:12:00
9:33 PM,42.8,39.2,87,29.53,10.0,West,10.4,18.4,N/A,,Overcast,260,2012-10-09 02:33:00
9:53 PM,42.8,39.2,87,29.53,10.0,WSW,10.4,18.4,N/A,,Overcast,250,2012-10-09 02:53:00
10:12 PM,41.0,39.2,93,29.54,10.0,West,11.5,18.4,N/A,,Overcast,260,2012-10-09 03:12:00
10:33 PM,41.0,37.4,87,29.54,10.0,West,12.7,16.1,N/A,,Overcast,260,2012-10-09 03:33:00
10:53 PM,41.0,39.2,93,29.55,10.0,West,10.4,17.3,N/A,,Overcast,260,2012-10-09 03:53:00
11:12 PM,41.0,39.2,93,29.55,10.0,West,8.1,-,N/A,,Overcast,260,2012-10-09 04:12:00
11:33 PM,41.0,37.4,87,29.55,10.0,West,9.2,16.1,N/A,,Overcast,270,2012-10-09 04:33:00
11:53 PM,39.2,37.4,93,29.55,10.0,West,6.9,-,N/A,,Overcast,260,2012-10-09 04:53:00